This is the latest recevied weather packets stored in our database for station/object WC4PEM-1. If no packets are shown the sender has not sent any weather packets the latest 10 day(s).
| Time | Temp. | Humidity | Pressure | Rain* | Wind** | Luminosity | Snow |
|---|---|---|---|---|---|---|---|
| 1778010002 | 30° C | 45% | 1013.5 hPa | 0 mm | - | 844 W/m² | - |
| 1778009903 | 30° C | 45% | 1013.5 hPa | 0 mm | - | 844 W/m² | - |
| 1778009603 | 29.44° C | 48% | 1013.6 hPa | 0 mm | - | 800 W/m² | - |
| 1778009399 | 28.89° C | 48% | 1013.7 hPa | 0 mm | - | 239 W/m² | - |
| 1778009303 | 28.89° C | 48% | 1013.7 hPa | 0 mm | - | 239 W/m² | - |
| 1778009003 | 29.44° C | 48% | 1013.8 hPa | 0 mm | - | 230 W/m² | - |
| 1778008703 | 29.44° C | 47% | 1013.9 hPa | 0 mm | - | 220 W/m² | - |
| 1778008500 | 30° C | 46% | 1013.9 hPa | 0 mm | - | 207 W/m² | - |
| 1778008403 | 30° C | 46% | 1013.9 hPa | 0 mm | - | 207 W/m² | - |
| 1778008103 | 30.56° C | 46% | 1014 hPa | 0 mm | - | 271 W/m² | - |
| 1778007805 | 30.56° C | 47% | 1013.9 hPa | 0 mm | - | 775 W/m² | - |
| 1778007503 | 30.56° C | 46% | 1014 hPa | 0 mm | - | 835 W/m² | - |
| 1778007204 | 30° C | 46% | 1014 hPa | 0 mm | - | 916 W/m² | - |
| 1778006904 | 30° C | 46% | 1014.1 hPa | 0 mm | - | 868 W/m² | - |
| 1778006603 | 30° C | 46% | 1014.2 hPa | 0 mm | - | 944 W/m² | - |
| 1778006304 | 30° C | 46% | 1014.3 hPa | 0 mm | - | 1011 W/m² | - |
| 1778006109 | 30° C | 45% | 1014.3 hPa | 0 mm | - | 207 W/m² | - |
| 1778006003 | 30° C | 45% | 1014.3 hPa | 0 mm | - | 207 W/m² | - |
| 1778005703 | 30° C | 47% | 1014.3 hPa | 0 mm | - | 1069 W/m² | - |
| 1778005589 | 30° C | 48% | 1014.4 hPa | 0 mm | - | 1051 W/m² | - |
| 1778005537 | 30° C | 48% | 1014.4 hPa | 0 mm | - | 1051 W/m² | - |
| 1778005403 | 30° C | 48% | 1014.4 hPa | 0 mm | - | 1051 W/m² | - |
| 1778005103 | 29.44° C | 49% | 1014.5 hPa | 0 mm | - | 1007 W/m² | - |
| 1778004803 | 28.89° C | 53% | 1014.7 hPa | 0 mm | - | 1104 W/m² | - |
| 1778004503 | 28.33° C | 53% | 1014.6 hPa | 0 mm | - | 315 W/m² | - |
* Rain latest hour (hover to see other rain measurements)
** Current wind speed in m/s (hover to see current wind gust speed)